Regional Weather Roundup
Issued by NWS

Home | Current Version | Previous Version | Graphics & Text | Print | Product List | Glossary On
Versions: 1 2 3 4 5 6 7 8 9 10 11 12 13 14 15 16 17 18 19 20 21 22 23 24 25 26 27 28 29 30 31 32 33 34 35 36 37 38 39 40 41 42 43 44 45 46 47 48 49 50
000
ASUS43 KFSD 270810
RWRSD

WEATHER ROUNDUP FOR SOUTH DAKOTA
NATIONAL WEATHER SERVICE SIOUX FALLS SD
300 AM CDT MON MAR 27 2017

NOTE: "FAIR" INDICATES FEW OR NO CLOUDS BELOW 12,000 FEET WITH NO
SIGNIFICANT WEATHER AND/OR OBSTRUCTIONS TO VISIBILITY.


SDZ001>005-009-010-012>017-270900-
NORTHWEST AND NORTH CENTRAL SOUTH DAKOTA

CITY           SKY/WX    TMP DP  RH WIND       PRES   REMARKS
BUFFALO          N/A     39  35  86 CALM      29.82F
FAITH            N/A     37  37 100 MISG      29.91F
MOBRIDGE       PTCLDY    39  34  82 SE6       29.90S
$$

SDZ012>016-024>037-041>051-057-063-072>074-270900-
SOUTHWEST AND SOUTH CENTRAL SOUTH DAKOTA

CITY           SKY/WX    TMP DP  RH WIND       PRES   REMARKS
RAPID CTY ARPT FOG       31  31 100 CALM      29.90F VSB 3/4
PIERRE         CLOUDY    39  37  92 CALM      29.93S
CUSTER         CLOUDY    29  27  92 NW5       29.89F WCI  24
ELLSWORTH AFB  CLOUDY    33  33 100 CALM      29.89F
PHILIP         PTCLDY    36  35  96 NW5       29.92F
PINE RIDGE     CLOUDY    41  39  93 CALM      29.92F
SPEARFISH      FAIR      36  32  87 SW6       29.89F
WINNER         FAIR      36  33  89 CALM      29.94S
$$

SDZ004>011-016>023-039-040-270900-
NORTHEAST SOUTH DAKOTA

CITY           SKY/WX    TMP DP  RH WIND       PRES   REMARKS
ABERDEEN       CLOUDY    38  33  82 CALM      29.95F
WATERTOWN      CLOUDY    35  35 100 CALM      29.94R
BROOKINGS      CLOUDY    35  34  96 CALM      29.95R
SISSETON         N/A     37  35  92 NW6       29.95R
$$

SDZ017-020-022-023-036>040-048>070-270900-
SOUTHEAST SOUTH DAKOTA

CITY           SKY/WX    TMP DP  RH WIND       PRES   REMARKS
SIOUX FALLS    CLOUDY    42  39  89 CALM      29.95F
HURON          CLOUDY    39  37  92 E3        29.96R
CHAMBERLAIN    FOG       34  34 100 CALM      29.95F VSB 1/4
MITCHELL       FOG       31  31 100 CALM      29.97R VSB 1/4
YANKTON        CLOUDY    43  39  87 CALM      29.96S
$$

ABBREVIATIONS USED IN REMARKS
   TC - TEMPERATURE IN CELSIUS
  WCI - WIND CHILL INDEX
   HX - HEAT INDEX
  VSB - VISIBILITY




USA.gov is the U.S. government's official web portal to all federal, state and local government web resources and services.